This is the latest recevied weather packets stored in our database for station/object WB4MOZ-3. If no packets are shown the sender has not sent any weather packets the latest 10 day(s).
| Time | Temp. | Humidity | Pressure | Rain* | Wind** | Luminosity | Snow |
|---|---|---|---|---|---|---|---|
| 1777236595 | 32.22° C | 55% | 1007.8 hPa | 0 mm | - | - | - |
| 1777236295 | 32.78° C | 53% | 1007.8 hPa | 0 mm | - | - | - |
| 1777235995 | 32.78° C | 54% | 1007.7 hPa | 0 mm | - | - | - |
| 1777235695 | 32.78° C | 54% | 1007.6 hPa | 0 mm | - | - | - |
| 1777235396 | 32.78° C | 54% | 1007.6 hPa | 0 mm | - | - | - |
| 1777235095 | 32.78° C | 54% | 1007.6 hPa | 0 mm | - | - | - |
| 1777234795 | 32.78° C | 54% | 1007.7 hPa | 0 mm | - | - | - |
| 1777234496 | 32.78° C | 54% | 1007.8 hPa | 0 mm | - | - | - |
| 1777233895 | 33.89° C | 52% | 1007.9 hPa | 0 mm | - | - | - |
| 1777233595 | 33.89° C | 50% | 1007.9 hPa | 0 mm | - | - | - |
| 1777232995 | 33.89° C | 47% | 1008 hPa | 0 mm | - | - | - |
| 1777232695 | 34.44° C | 45% | 1008.2 hPa | 0 mm | - | - | - |
| 1777232395 | 34.44° C | 46% | 1008.2 hPa | 0 mm | - | - | - |
| 1777232095 | 33.89° C | 45% | 1008.1 hPa | 0 mm | - | - | - |
| 1777231795 | 33.89° C | 45% | 1008.3 hPa | 0 mm | - | - | - |
| 1777231495 | 33.89° C | 46% | 1008.4 hPa | 0 mm | - | - | - |
| 1777231195 | 33.89° C | 44% | 1008.5 hPa | 0 mm | - | - | - |
| 1777230595 | 33.33° C | 47% | 1008.5 hPa | 0 mm | - | - | - |
| 1777230295 | 33.89° C | 48% | 1008.6 hPa | 0 mm | - | - | - |
| 1777229695 | 33.89° C | 47% | 1008.8 hPa | 0 mm | - | - | - |
| 1777229395 | 33.33° C | 51% | 1008.8 hPa | 0 mm | - | - | - |
| 1777228795 | 33.33° C | 49% | 1009.1 hPa | 0 mm | - | - | - |
| 1777228495 | 33.33° C | 48% | 1009.2 hPa | 0 mm | - | - | - |
| 1777228195 | 33.89° C | 50% | 1009.2 hPa | 0 mm | - | - | - |
| 1777227595 | 32.78° C | 50% | 1009.4 hPa | 0 mm | - | - | - |
* Rain latest hour (hover to see other rain measurements)
** Current wind speed in m/s (hover to see current wind gust speed)